[[{"header":{"parameterUnit":"m.s-1","parameterCategory":1,"la1":30.2991,"la2":30.254,"lo1":-89.0895,"lo2":-89.0444,"dy":0.0017,"dx":0.0017,"nx":28,"ny":28,"refTime":"2024-05-04T21:00:00:Z","depth":0,"parameterNumber":2,"parameterNumberName":"U-component_of_WINDS"},"data":[0,0,0,0,0,0,0,0,0,0,0,0,0,0,0,0,0,0,0,0,0,0,0,0,0,0,0,0,0,0,0,0,0,0,0,0,0,0,0,0,0,0,0,0,0,0,0,0,0,0,0,0,0,0,0,0,0,0,-2.5327,-2.5327,0,-2.5372,-2.5372,-2.5373,-2.5347,-2.5346,-2.5345,-2.5343,-2.5389,-2.5391,-2.5393,0,0,0,0,0,0,0,0,0,0,0,0,0,-2.5219,-2.5221,-2.5327,-2.5327,-2.5328,-2.5372,-2.5372,-2.5373,-2.5347,-2.5346,-2.5344,-2.5343,-2.5388,-2.5391,-2.5394,0,0,0,0,0,0,0,0,0,0,0,0,0,-2.5265,-2.5221,-2.5327,-2.532,-2.532,-2.5372,-2.5372,-2.5373,-2.5348,-2.5346,-2.5344,-2.5342,-2.5387,-2.539,-2.5394,-2.5454,0,0,-2.5405,-2.5406,0,0,0,0,0,0,0,0,-2.5262,-2.5269,-2.5321,-2.5321,-2.5321,-2.5352,-2.5351,-2.54,-2.5348,-2.5337,-2.5343,-2.5341,-2.5378,-2.5382,-2.5395,-2.5456,-2.5458,-2.5405,-2.5407,-2.5409,-2.541,0,0,0,0,0,0,0,-2.5259,-2.5267,-2.5345,-2.5322,-2.5322,-2.5315,-2.532,-2.536,-2.5368,-2.5338,-2.5336,-2.5342,-2.5378,-2.5391,-2.5396,-2.5459,-2.5405,-2.5408,-2.541,-2.5412,-2.5571,-2.5573,0,0,0,0,0,0,-2.5256,-2.5264,-2.5343,-2.5346,-2.5286,-2.5319,-2.5324,-2.5344,-2.5367,-2.5369,-2.5344,-2.5341,-2.5386,-2.5391,-2.5397,-2.5469,-2.5409,-2.5412,-2.5414,-2.5569,-2.5572,-2.5574,0,0,0,0,0,0,-2.5254,-2.5264,-2.5341,-2.5305,-2.5314,-2.5323,-2.5345,-2.5346,-2.5359,-2.5371,-2.5372,-2.5356,-2.5385,-2.5392,-2.544,-2.547,-2.5414,-2.5417,-2.5567,-2.557,-2.5573,-2.5613,0,0,0,0,0,0,-2.5251,-2.5263,-2.5286,-2.5305,-2.5316,-2.5384,-2.5347,-2.5348,-2.5366,-2.5362,-2.5383,-2.5385,-2.5384,-2.5435,-2.5444,-2.5474,-2.542,-2.5564,-2.5568,-2.5572,-2.5609,-2.5617,-2.5624,0,0,0,0,0,-2.5247,-2.5295,-2.5287,-2.5297,-2.5345,-2.5386,-2.5392,-2.539,-2.5368,-2.5391,-2.5399,-2.5384,-2.5465,-2.544,-2.545,-2.5481,-2.5562,-2.5567,-2.5572,-2.5605,-2.5615,-2.5624,0,0,0,0,0,0,-2.5278,-2.5297,-2.5289,-2.5344,-2.5364,-2.5381,-2.541,-2.54,-2.5425,-2.5421,-2.5417,-2.5422,-2.5472,-2.5482,-2.5453,-2.5541,-2.5511,-2.5517,-2.5533,-2.5542,-2.555,-2.5546,-2.5423,0,0,0,0,0,-2.5292,-2.5323,-2.5338,-2.5385,-2.5396,-2.5401,-2.5419,-2.5416,-2.5435,-2.5443,-2.5454,-2.5474,-2.5504,-2.5524,-2.5552,-2.561,-2.5614,-2.5637,-2.5644,-2.565,-2.5656,-2.5688,-2.5698,-2.559,-2.559,-2.559,0,0,-2.5319,-2.5334,-2.5354,-2.5392,-2.5407,-2.5439,-2.5408,-2.5444,-2.5468,-2.5449,-2.5495,-2.5504,-2.5525,-2.5579,-2.5603,-2.5588,-2.5687,-2.5656,-2.5661,-2.5664,-2.5694,-2.5704,-2.5713,-2.5593,-2.5592,-2.5592,0,0,-2.5386,-2.54,-2.5442,-2.5457,-2.548,-2.5483,-2.5493,-2.5513,-2.5518,-2.5564,-2.555,-2.5579,-2.5631,-2.5647,-2.5662,-2.5736,-2.5723,-2.5745,-2.5784,-2.5815,-2.5824,-2.5831,-2.5858,-2.5867,-2.5751,-2.5751,-2.5751,0,-2.5418,-2.5467,-2.5464,-2.5501,-2.5519,-2.5503,-2.5544,-2.5559,-2.559,-2.5602,-2.5586,-2.565,-2.5664,-2.5721,-2.5739,-2.5752,-2.5763,-2.5742,-2.5823,-2.583,-2.5837,-2.5863,-2.5873,-2.5754,-2.5753,-2.5753,-2.5753,0,-2.5504,-2.5539,-2.5569,-2.56,-2.562,-2.566,-2.5663,-2.5684,-2.568,-2.5685,-2.5733,-2.5748,-2.5779,-2.5793,-2.5788,-2.585,-2.584,-2.5823,-2.5792,-2.585,-2.5874,-2.5883,-2.5757,-2.5756,-2.5755,-2.5755,0,0,-2.5592,-2.5621,-2.5632,-2.5646,-2.567,-2.5696,-2.5735,-2.5766,-2.5784,-2.5806,-2.5838,-2.5883,-2.5868,-2.5885,-2.5882,-2.5909,-2.5967,-2.5889,-2.5889,-2.5903,-2.6036,-2.6048,-2.606,-2.5959,-2.5961,-2.5963,-2.6034,0,-2.5661,-2.5728,-2.5727,-2.579,-2.5822,-2.5808,-2.5841,-2.586,-2.5866,-2.5894,-2.5901,-2.5932,-2.591,-2.592,-2.5946,-2.5954,-2.5994,-2.5949,-2.5989,-2.5991,-2.5984,-2.6072,-2.6085,-2.6152,-2.6043,-2.6045,-2.6046,0,-2.575,-2.5775,-2.5841,-2.5861,-2.5874,-2.5905,-2.5933,-2.596,-2.5981,-2.5983,-2.6003,-2.5996,-2.6035,-2.6004,-2.6058,-2.6028,-2.6044,-2.6051,-2.6053,-2.6057,-2.6022,-2.6078,-2.6173,-2.6183,-2.6061,-2.6059,-2.6058,0,-2.5807,-2.5858,-2.5904,-2.5916,-2.594,-2.5962,-2.5973,-2.5992,-2.6011,-2.6036,-2.6048,-2.6077,-2.6093,-2.6115,-2.6117,-2.6094,-2.6172,-2.614,-2.6175,-2.6175,-2.6192,-2.6191,-2.6291,-2.6202,-2.6202,-2.6202,-2.6202,0,-2.5884,-2.5925,-2.593,-2.5958,-2.6004,-2.6002,-2.6048,-2.6057,-2.6074,-2.6104,-2.6093,-2.6121,-2.6121,-2.615,-2.6151,-2.6196,-2.6204,-2.6207,-2.6207,-2.6208,-2.6207,-2.6218,-2.6214,-2.6205,-2.6204,-2.6204,-2.6203,0,-2.5956,-2.5961,-2.601,-2.6029,-2.6035,-2.6068,-2.6084,-2.6111,-2.6117,-2.6155,-2.6164,-2.6172,-2.6206,-2.6209,-2.6248,-2.6249,-2.6303,-2.6298,-2.6296,-2.6295,-2.633,-2.6327,-2.6441,-2.6456,-2.6357,-2.6358,-2.6359,0,-2.6004,-2.6036,-2.6058,-2.6078,-2.609,-2.6122,-2.6141,-2.6141,-2.6161,-2.6188,-2.6212,-2.6244,-2.627,-2.6324,-2.6334,-2.6364,-2.6359,-2.6397,-2.6364,-2.6364,-2.636,-2.6358,-2.6361,-2.6404,-2.6405,-2.6406,-2.6406,0,-2.6091,-2.6092,-2.612,-2.6149,-2.6172,-2.6195,-2.6217,-2.6234,-2.6236,-2.626,-2.6294,-2.6314,-2.6354,-2.6387,-2.6416,-2.6427,-2.6418,-2.6417,-2.6426,-2.6428,-2.6426,-2.6428,-2.6314,-2.6414,-2.6413,-2.6413,-2.6412,-2.6412,-2.6152,-2.618,-2.62,-2.6232,-2.6248,-2.6269,-2.6295,-2.6304,-2.6333,-2.6366,-2.6364,-2.6402,-2.6422,-2.646,-2.6474,-2.6504,-2.6491,-2.6505,-2.6508,-2.6512,-2.6515,-2.6421,-2.6509,-2.6509,-2.6509,-2.6508,-2.6508,0,-2.6238,-2.6251,-2.628,-2.6311,-2.6336,-2.6325,-2.6348,-2.637,-2.6403,-2.6423,-2.6449,-2.6489,-2.652,-2.6533,-2.6564,-2.6585,-2.6581,-2.6593,-2.6592,-2.6594,-2.6525,-2.6514,-2.6596,-2.6596,-2.6596,-2.6596,-2.6596,-2.6596,-2.6286,-2.6332,-2.6335,-2.6389,-2.6401,-2.6438,-2.6452,-2.6471,-2.6487,-2.6532,-2.6558,-2.6566,-2.6583,-2.6615,-2.6644,-2.6647,-2.6659,-2.6672,-2.6673,-2.6608,-2.6599,-2.6591,-2.658,-2.6675,-2.6675,-2.674,-2.6741,-2.6741]},{"header":{"parameterUnit":"m.s-1","parameterCategory":1,"la1":30.2991,"la2":30.254,"lo1":-89.0895,"lo2":-89.0444,"dy":0.0017,"dx":0.0017,"nx":28,"ny":28,"refTime":"2024-05-04T21:00:00:Z","depth":0,"parameterNumber":3,"parameterNumberName":"V-component_of_WINDS"},"data":[0,0,0,0,0,0,0,0,0,0,0,0,0,0,0,0,0,0,0,0,0,0,0,0,0,0,0,0,0,0,0,0,0,0,0,0,0,0,0,0,0,0,0,0,0,0,0,0,0,0,0,0,0,0,0,0,0,0,3.6193,3.6194,0,3.6239,3.6239,3.624,3.621,3.6208,3.6207,3.6206,3.6248,3.625,3.6253,0,0,0,0,0,0,0,0,0,0,0,0,0,3.6079,3.6081,3.6193,3.6194,3.6195,3.6239,3.6239,3.624,3.621,3.6208,3.6207,3.6205,3.6247,3.625,3.6253,0,0,0,0,0,0,0,0,0,0,0,0,0,3.6127,3.6082,3.6193,3.6185,3.6185,3.6238,3.6239,3.624,3.621,3.6208,3.6206,3.6204,3.6246,3.625,3.6253,3.6316,0,0,3.6264,3.6266,0,0,0,0,0,0,0,0,3.6124,3.6131,3.6186,3.6186,3.6186,3.6217,3.6214,3.6265,3.6211,3.6201,3.6206,3.6203,3.6239,3.6243,3.6256,3.6318,3.632,3.6264,3.6267,3.6268,3.6269,0,0,0,0,0,0,0,3.6121,3.6129,3.6211,3.6187,3.6187,3.6178,3.6183,3.6224,3.623,3.6201,3.6199,3.6205,3.6238,3.6252,3.6256,3.632,3.6264,3.6268,3.627,3.6271,3.6438,3.644,0,0,0,0,0,0,3.6119,3.6126,3.621,3.6212,3.6149,3.6182,3.6187,3.6209,3.623,3.6231,3.6207,3.6204,3.6247,3.6252,3.6258,3.6334,3.6268,3.6272,3.6274,3.6436,3.6439,3.6441,0,0,0,0,0,0,3.6116,3.6126,3.6208,3.6169,3.6179,3.6186,3.6211,3.6211,3.6225,3.6234,3.6235,3.622,3.6246,3.6253,3.6302,3.6335,3.6273,3.6276,3.6433,3.6437,3.644,3.6486,0,0,0,0,0,0,3.6113,3.6126,3.615,3.617,3.6181,3.6253,3.6213,3.6213,3.6231,3.6227,3.6247,3.6248,3.6245,3.6297,3.6306,3.6339,3.6279,3.643,3.6435,3.6439,3.6481,3.649,3.6498,0,0,0,0,0,3.6109,3.616,3.6151,3.6162,3.6212,3.6255,3.6261,3.6257,3.6234,3.6258,3.6265,3.6247,3.633,3.6303,3.6312,3.6346,3.6428,3.6434,3.6439,3.6478,3.6489,3.6498,0,0,0,0,0,0,3.6142,3.6162,3.6153,3.6212,3.6232,3.6249,3.628,3.6269,3.6294,3.629,3.6283,3.6287,3.634,3.6348,3.6317,3.6409,3.6375,3.6383,3.6402,3.6412,3.642,3.6417,3.6282,0,0,0,0,0,3.6156,3.619,3.6206,3.6256,3.6267,3.6272,3.629,3.6286,3.6306,3.6314,3.6324,3.6343,3.6373,3.6393,3.6421,3.6483,3.6487,3.6511,3.6519,3.6526,3.6532,3.6566,3.6578,3.6458,3.6458,3.6458,0,0,3.6185,3.6201,3.6222,3.6263,3.6278,3.6313,3.6279,3.6317,3.6343,3.6319,3.6367,3.6376,3.6396,3.6453,3.6478,3.6461,3.6566,3.6533,3.6538,3.654,3.6573,3.6584,3.6594,3.6462,3.6461,3.646,0,0,3.6257,3.6272,3.6316,3.6333,3.6357,3.636,3.6371,3.6391,3.6396,3.6445,3.6429,3.6458,3.6511,3.6527,3.6541,3.6622,3.6607,3.6631,3.6674,3.6708,3.6717,3.6725,3.6754,3.6765,3.6637,3.6638,3.6638,0,3.629,3.6343,3.634,3.638,3.6399,3.6382,3.6426,3.6442,3.6473,3.6486,3.6468,3.6534,3.6547,3.6607,3.6627,3.664,3.6651,3.6628,3.6716,3.6724,3.6732,3.676,3.6771,3.664,3.664,3.664,3.6639,0,3.6383,3.642,3.6453,3.6486,3.6508,3.655,3.6554,3.6576,3.6571,3.6576,3.6626,3.6641,3.6673,3.6687,3.6681,3.6747,3.6736,3.6717,3.6683,3.6746,3.6772,3.6783,3.6644,3.6643,3.6643,3.6642,0,0,3.6474,3.6508,3.652,3.6535,3.6562,3.659,3.6631,3.6664,3.6684,3.6707,3.6742,3.6787,3.6771,3.6788,3.6783,3.6813,3.6876,3.679,3.679,3.6806,3.6951,3.6965,3.6977,3.6867,3.6869,3.6871,3.6949,0,3.6548,3.6622,3.6622,3.669,3.6725,3.671,3.6746,3.6766,3.6772,3.6802,3.6808,3.6841,3.6816,3.6827,3.6855,3.6863,3.6905,3.6857,3.6899,3.69,3.6894,3.6991,3.7006,3.7079,3.6959,3.6961,3.6962,0,3.6643,3.6671,3.6743,3.6767,3.6781,3.6814,3.6845,3.6874,3.6896,3.6899,3.6919,3.6911,3.6953,3.6919,3.6977,3.6944,3.6961,3.6968,3.697,3.6974,3.6935,3.6997,3.7102,3.7113,3.6978,3.6977,3.6976,0,3.6703,3.6759,3.681,3.6824,3.6852,3.6875,3.6888,3.6909,3.6929,3.6956,3.6969,3.7,3.7017,3.704,3.7041,3.7016,3.71,3.7065,3.7103,3.7103,3.712,3.7119,3.723,3.7132,3.7132,3.7131,3.7131,0,3.6785,3.683,3.6838,3.6869,3.6919,3.6919,3.6968,3.6978,3.6997,3.703,3.7018,3.7049,3.7048,3.7079,3.7079,3.7127,3.7135,3.7138,3.7137,3.7139,3.7139,3.715,3.7145,3.7134,3.7134,3.7133,3.7133,0,3.686,3.6867,3.6922,3.6945,3.6952,3.6988,3.7007,3.7037,3.7044,3.7085,3.7095,3.7104,3.714,3.7144,3.7185,3.7185,3.7244,3.7238,3.7237,3.7236,3.7274,3.727,3.7395,3.7412,3.7303,3.7304,3.7305,0,3.6912,3.6947,3.6974,3.6996,3.7011,3.7046,3.7068,3.7069,3.7091,3.7121,3.7147,3.7183,3.7211,3.7269,3.7279,3.7311,3.7306,3.7348,3.731,3.7311,3.7307,3.7305,3.7309,3.7355,3.7356,3.7357,3.7357,0,3.7003,3.7006,3.7038,3.7073,3.7099,3.7126,3.715,3.7169,3.7173,3.7199,3.7237,3.7259,3.7303,3.7338,3.737,3.7382,3.7371,3.737,3.738,3.7382,3.738,3.7382,3.7257,3.7366,3.7365,3.7365,3.7364,3.7364,3.7069,3.7099,3.7124,3.7161,3.7181,3.7205,3.7234,3.7245,3.7278,3.7314,3.7313,3.7355,3.7377,3.7419,3.7434,3.7466,3.7452,3.7467,3.7471,3.7475,3.7479,3.7375,3.7472,3.7472,3.7471,3.7471,3.7471,0,3.716,3.7176,3.721,3.7246,3.7275,3.7264,3.7292,3.7316,3.7354,3.7377,3.7406,3.745,3.7485,3.7499,3.7533,3.7556,3.7552,3.7565,3.7563,3.7566,3.7489,3.7477,3.7568,3.7568,3.7568,3.7568,3.7568,3.7568,3.7211,3.7262,3.7268,3.733,3.7345,3.7388,3.7404,3.7426,3.7445,3.7495,3.7525,3.7535,3.7554,3.759,3.7621,3.7624,3.7637,3.7653,3.7654,3.7581,3.7571,3.7562,3.7551,3.7655,3.7656,3.7728,3.7728,3.7729]}]]